Bastrop, LA

12:14 PM CDT on August 30, 2016 (GMT -0500)
Bastrop

Weather History for KBQP - June, 2013

Change the Weather History Date:

Thursday, June 27, 2013

  Actual Average (KMLU) Record (KMLU)
Temperature  
Mean Temperature 87 °F 82 °F  
Max Temperature 96 °F 93 °F 103 °F (2009)
Min Temperature 78 °F 71 °F 59 °F (1974)
Degree Days  
Heating Degree Days 0 0  
Month to date heating degree days 0  
Since 1 June heating degree days 0  
Since 1 July heating degree days 2230  
Cooling Degree Days 22 17  
Month to date cooling degree days 414  
Year to date cooling degree days 849  
Since 1 June cooling degree days 414  
Growing Degree Days 37 (Base 50)    
Moisture  
Dew Point 75 °F    
Average Humidity 70    
Maximum Humidity 88    
Minimum Humidity 52    
Precipitation  
Precipitation 0.00 in 0.16 in 3.00 in (1984)
Month to date precipitation 4.21  
Year to date precipitation 28.26  
Snow  
Snow 0.00 in - - ()
Month to date snowfall  
Since 1 June snowfall  
Since 1 July snowfall  
Snow Depth -    
Sea Level Pressure  
Sea Level Pressure 29.97 in    
Wind  
Wind Speed 1 mph (WSW)    
Max Wind Speed 10 mph    
Max Gust Speed -    
Visibility 10 miles    
Events Thunderstorm    
T = Trace of Precipitation, MM = Missing Value Source: NWS Daily Summary

Daily Weather History Graph

Daily Weather History Graph

Search for Another Location

Airport or City:

Trip Planner

Search our weather history database for the weather conditions in past years. The results will help you decide how hot, cold, wet, or windy it might be!

Date:

Astronomy

Jun. 27, 2013 Rise Set
Actual Time 6:01 AM CDT 8:19 PM CDT
Civil Twilight 5:33 AM CDT 8:48 PM CDT
Nautical Twilight 4:58 AM CDT 9:23 PM CDT
Astronomical Twilight 4:20 AM CDT 10:01 PM CDT
Moon 11:35 PM CDT (6/27) 10:46 AM CDT (6/27)
Length of Visible Light 15h 14m
Length of Day
14h 17m
Waning Gibbous, 76% of the Moon is Illuminated
Jun 27
Waning Gibbous
Jun 29
Last Quarter
Jul 8
New
Jul 15
First Quarter
Jul 22
Full

Hourly Weather History & Observations

Time (CDT) Temp. Heat Index Dew Point Humidity Pressure Visibility Wind Dir Wind Speed Gust Speed Precip Events Conditions
12:15 AM 78.6 °F - 74.8 °F 88% 29.96 in 10.0 mi Calm Calm - N/A   Clear
12:35 AM 79.5 °F - 75.2 °F 87% 29.96 in 10.0 mi Calm Calm - N/A   Clear
1:15 AM 80.1 °F 85.1 °F 75.2 °F 85% 29.96 in 10.0 mi Calm Calm - N/A   Clear
1:35 AM 80.2 °F 85.5 °F 75.2 °F 85% 29.96 in 10.0 mi Calm Calm - N/A   Clear
1:55 AM 80.2 °F 85.2 °F 74.7 °F 83% 29.97 in 10.0 mi Calm Calm - N/A   Clear
2:15 AM 80.2 °F 85.2 °F 74.7 °F 83% 29.97 in 10.0 mi Calm Calm - N/A   Clear
2:35 AM 80.2 °F 85.2 °F 74.7 °F 83% 29.97 in 10.0 mi Calm Calm - N/A   Clear
2:55 AM 79.9 °F - 74.7 °F 84% 29.98 in 10.0 mi Calm Calm - N/A   Clear
3:15 AM 79.5 °F - 74.5 °F 84% 29.98 in 10.0 mi Calm Calm - N/A   Clear
3:35 AM 79.3 °F - 74.5 °F 85% 29.99 in 10.0 mi Calm Calm - N/A   Clear
3:55 AM 79.3 °F - 74.5 °F 85% 29.99 in 10.0 mi Calm Calm - N/A   Clear
4:15 AM 79.7 °F - 74.3 °F 83% 29.98 in 10.0 mi Calm Calm - N/A   Clear
4:35 AM 80.1 °F 84.6 °F 74.3 °F 82% 29.99 in 10.0 mi Calm Calm - N/A   Clear
4:55 AM 79.7 °F - 73.9 °F 82% 29.99 in 10.0 mi Calm Calm - N/A   Clear
5:15 AM 79.7 °F - 73.9 °F 82% 30.00 in 10.0 mi Calm Calm - N/A   Clear
5:35 AM 79.2 °F - 73.9 °F 84% 30.01 in 10.0 mi Calm Calm - N/A   Clear
5:55 AM 79.0 °F - 73.9 °F 84% 30.01 in 10.0 mi Calm Calm - N/A   Clear
6:15 AM 78.6 °F - 73.9 °F 85% 30.01 in 10.0 mi Calm Calm - N/A   Clear
6:35 AM 79.0 °F - 74.3 °F 85% 30.01 in 10.0 mi Calm Calm - N/A   Clear
6:55 AM 79.2 °F - 74.3 °F 85% 30.01 in 7.0 mi SW 3.5 mph - N/A   Clear
7:15 AM 79.5 °F - 74.5 °F 84% 30.01 in 10.0 mi WSW 4.6 mph - N/A   Clear
7:35 AM 80.8 °F 86.5 °F 75.0 °F 83% 30.02 in 10.0 mi Calm Calm - N/A   Clear
7:55 AM 82.0 °F 88.6 °F 75.0 °F 79% 30.02 in 10.0 mi Calm Calm - N/A   Clear
8:15 AM 83.3 °F 90.5 °F 74.5 °F 75% 30.02 in 10.0 mi WSW 9.2 mph - N/A   Clear
8:35 AM 84.0 °F 91.2 °F 73.9 °F 72% 30.02 in 10.0 mi WSW 8.1 mph - N/A   Clear
8:55 AM 85.3 °F 92.6 °F 73.6 °F 68% 30.02 in 10.0 mi West 10.4 mph - N/A   Clear
9:15 AM 86.0 °F 93.0 °F 73.2 °F 65% 30.02 in 10.0 mi West 10.4 mph - N/A   Clear
9:35 AM 86.9 °F 94.5 °F 73.2 °F 64% 30.02 in 10.0 mi WSW 6.9 mph - N/A   Clear
9:55 AM 87.3 °F 94.9 °F 73.4 °F 63% 30.02 in 10.0 mi Calm Calm - N/A   Clear
10:15 AM 88.5 °F 97.3 °F 73.9 °F 62% 30.01 in 10.0 mi West 10.4 mph - N/A   Clear
10:35 AM 88.9 °F 97.6 °F 73.9 °F 61% 30.01 in 10.0 mi West 5.8 mph - N/A   Clear
10:55 AM 89.8 °F 99.2 °F 74.1 °F 60% 30.00 in 10.0 mi WSW 6.9 mph - N/A   Clear
11:15 AM 90.5 °F 98.6 °F 73.0 °F 56% 30.00 in 10.0 mi West 9.2 mph - N/A   Clear
11:35 AM 91.0 °F 100.4 °F 74.1 °F 57% 30.00 in 10.0 mi Calm Calm - N/A   Clear
11:55 AM 91.0 °F 99.8 °F 73.4 °F 56% 30.00 in 10.0 mi Calm Calm - N/A   Clear
12:15 PM 92.1 °F 101.1 °F 73.2 °F 54% 30.00 in 10.0 mi WSW 3.5 mph - N/A   Clear
12:35 PM 92.3 °F 100.9 °F 72.9 °F 53% 29.99 in 10.0 mi Calm Calm - N/A   Clear
12:55 PM 92.3 °F 102.2 °F 73.8 °F 55% 29.99 in 10.0 mi Calm Calm - N/A   Clear
1:15 PM 92.7 °F 102.4 °F 73.9 °F 54% 29.98 in 10.0 mi Calm Calm - N/A   Clear
1:35 PM 93.9 °F 105.4 °F 74.8 °F 54% 29.97 in 10.0 mi Calm Calm - N/A   Clear
1:55 PM 94.1 °F 105.9 °F 75.2 °F 54% 29.97 in 10.0 mi West 5.8 mph - N/A   Clear
2:15 PM 94.5 °F 106.0 °F 75.2 °F 53% 29.97 in 10.0 mi Calm Calm - N/A   Clear
2:35 PM 94.6 °F 107.2 °F 75.4 °F 54% 29.97 in 10.0 mi Calm Calm - N/A   Clear
2:55 PM 94.8 °F 106.9 °F 75.0 °F 53% 29.96 in 10.0 mi West 3.5 mph - N/A   Clear
3:15 PM 95.2 °F 107.1 °F 75.2 °F 52% 29.96 in 10.0 mi Calm Calm - N/A   Clear
3:35 PM 95.5 °F 108.8 °F 75.9 °F 53% 29.96 in 10.0 mi Calm Calm - N/A   Clear
3:55 PM 95.5 °F 108.0 °F 75.2 °F 52% 29.95 in 10.0 mi Calm Calm - N/A   Clear
4:15 PM 96.3 °F 110.7 °F 76.5 °F 53% 29.95 in 10.0 mi Calm Calm - N/A   Clear
4:35 PM 95.7 °F 109.3 °F 75.9 °F 53% 29.95 in 10.0 mi Calm Calm - N/A   Clear
4:55 PM 95.9 °F 109.7 °F 76.3 °F 53% 29.95 in 10.0 mi Calm Calm - N/A   Clear
5:15 PM 95.9 °F 109.7 °F 76.1 °F 53% 29.94 in 10.0 mi Calm Calm - N/A   Clear
5:35 PM 95.2 °F 108.6 °F 76.1 °F 54% 29.93 in 10.0 mi Calm Calm - N/A   Clear
5:55 PM 94.5 °F 108.3 °F 76.5 °F 56% 29.92 in 10.0 mi Calm Calm - N/A   Clear
6:15 PM 95.0 °F 108.9 °F 76.6 °F 55% 29.92 in 10.0 mi Calm Calm - N/A   Clear
6:35 PM 94.3 °F 107.8 °F 76.6 °F 56% 29.91 in 10.0 mi Calm Calm - N/A   Clear
6:55 PM 93.6 °F 106.7 °F 76.5 °F 57% 29.91 in 10.0 mi Calm Calm - N/A   Clear
7:15 PM 92.7 °F 106.4 °F 77.0 °F 60% 29.92 in 10.0 mi Calm Calm - N/A   Clear
7:35 PM 91.9 °F 105.9 °F 77.2 °F 62% 29.92 in 10.0 mi Calm Calm - N/A   Clear
7:55 PM 88.2 °F 104.8 °F 80.2 °F 77% 29.91 in 10.0 mi Calm Calm - N/A   Clear
8:15 PM 88.2 °F 101.8 °F 78.1 °F 72% 29.91 in 10.0 mi Calm Calm - N/A   Clear
8:35 PM 85.3 °F 99.1 °F 79.5 °F 83% 29.92 in 10.0 mi Calm Calm - N/A   Clear
8:55 PM 84.2 °F 96.6 °F 79.2 °F 85% 29.92 in 10.0 mi Calm Calm - N/A   Clear
9:15 PM 84.6 °F 96.8 °F 78.8 °F 83% 29.91 in 10.0 mi Calm Calm - N/A   Clear
9:35 PM 86.0 °F 98.3 °F 78.1 °F 77% 29.91 in 10.0 mi Calm Calm - N/A   Clear
9:55 PM 86.0 °F 97.3 °F 77.2 °F 75% 29.91 in 10.0 mi Calm Calm - N/A   Clear
10:15 PM 85.1 °F 95.8 °F 77.2 °F 77% 29.93 in 10.0 mi Calm Calm - N/A   Clear
10:35 PM 82.9 °F 92.1 °F 77.4 °F 83% 29.93 in 10.0 mi Calm Calm - N/A   Clear
10:55 PM 82.0 °F 90.8 °F 77.7 °F 87% 29.94 in 10.0 mi Calm Calm - N/A   Clear
11:15 PM 81.5 °F 89.5 °F 77.5 °F 88% 29.94 in 10.0 mi Calm Calm - N/A   Clear
11:35 PM 82.2 °F 90.7 °F 77.2 °F 85% 29.94 in 10.0 mi Calm Calm - N/A Thunderstorm Clear
11:55 PM 81.7 °F 89.5 °F 77.2 °F 86% 29.95 in 10.0 mi Calm Calm - N/A   Clear